Weather History for New Bern, NC

Change the Weather History Date:

Wednesday, January 23, 2013

  Actual Average Record
Temperature  
Mean Temperature 33 °F 44 °F  
Max Temperature 42 °F 55 °F 77 °F (1974)
Min Temperature 24 °F 34 °F 13 °F (1985)
Degree Days  
Heating Degree Days 32 21  
Month to date heating degree days 338 483  
Since 1 July heating degree days 1280 1477  
Cooling Degree Days 0 0  
Month to date cooling degree days 4 0  
Year to date cooling degree days 4 0  
Moisture  
Dew Point 10 °F    
Average Humidity 40    
Maximum Humidity 59    
Minimum Humidity 21    
Precipitation  
Precipitation 0.00 in 0.12 in 1.22 in (2002)
Month to date precipitation 1.24 2.99  
Year to date precipitation 1.24 2.99  
Snow  
Snow 0.00 in - - ()
Month to date snowfall 0.0  
Since 1 July snowfall 0.0  
Snow Depth 0.00 in    
Sea Level Pressure  
Sea Level Pressure 30.30 in    
Wind  
Wind Speed 5 mph (NW)    
Max Wind Speed 13 mph    
Max Gust Speed 18 mph    
Visibility 10 miles    
Events      
T = Trace of Precipitation, MM = Missing Value Source: NWS Daily Summary

Daily Weather History Graph

Daily Weather History Graph

Search for Another Location

Airport:

Trip Planner

Search our weather history database for the weather conditions in past years. The results will help you decide how hot, cold, wet, or windy it might be!

Date:

Astronomy

Jan. 23, 2013 Rise Set
Actual Time 7:12 AM EST 5:27 PM EST
Civil Twilight 6:45 AM EST 5:55 PM EST
Nautical Twilight 6:14 AM EST 6:25 PM EST
Astronomical Twilight 5:44 AM EST 6:55 PM EST
Moon 2:38 PM EST (1/23) 4:20 AM EST (1/23)
Length of Visible Light 11h 09m
Length of Day
10h 15m
Waxing Gibbous, 89% of the Moon is Illuminated
Jan 23
Waxing Gibbous
Jan 26
Full
Feb 3
Last Quarter
Feb 10
New
Feb 17
First Quarter

Hourly Weather History & Observations

Time (EST) Temp. Windchill Dew Point Humidity Pressure Visibility Wind Dir Wind Speed Gust Speed Precip Events Conditions
12:54 AM 28.0 °F 20.8 °F 9.0 °F 45% 30.30 in 10.0 mi North 6.9 mph - N/A   Clear
1:54 AM 28.0 °F 20.0 °F 8.1 °F 43% 30.31 in 10.0 mi NNE 8.1 mph - N/A   Clear
2:54 AM 28.0 °F 20.8 °F 8.1 °F 43% 30.32 in 10.0 mi NNE 6.9 mph - N/A   Clear
3:54 AM 25.0 °F 20.7 °F 10.9 °F 55% 30.32 in 10.0 mi NNW 3.5 mph - N/A   Clear
4:54 AM 27.0 °F 18.7 °F 7.0 °F 43% 30.33 in 10.0 mi NNE 8.1 mph - N/A   Clear
5:54 AM 25.0 °F - 10.0 °F 53% 30.36 in 10.0 mi North - - N/A   Clear
6:54 AM 24.1 °F - 9.0 °F 53% 30.36 in 10.0 mi North - - N/A   Clear
7:54 AM 25.0 °F - 10.0 °F 53% 30.38 in - Calm Calm - N/A   Unknown
8:54 AM 30.0 °F - 6.1 °F 36% 30.40 in 10.0 mi North - - N/A   Unknown
9:54 AM 32.0 °F 24.2 °F 1.9 °F 28% 30.40 in 10.0 mi NNE 9.2 mph - N/A   Clear
10:54 AM 33.1 °F 24.9 °F 1.0 °F 26% 30.40 in 10.0 mi North 10.4 mph - N/A   Clear
11:54 AM 36.0 °F 29.6 °F 3.0 °F 25% 30.37 in 10.0 mi NNW 8.1 mph - N/A   Unknown
12:54 PM 37.0 °F - 1.9 °F 23% 30.32 in 10.0 mi Calm Calm - N/A   Clear
1:54 PM 39.9 °F 33.9 °F 6.1 °F 25% 30.29 in 10.0 mi West 9.2 mph - N/A   Clear
2:54 PM 41.0 °F 35.8 °F 7.0 °F 25% 30.27 in 10.0 mi West 8.1 mph - N/A   Clear
3:54 PM 39.9 °F 35.1 °F 10.0 °F 29% 30.27 in 10.0 mi WNW 6.9 mph - N/A   Clear
4:54 PM 39.0 °F 35.7 °F 10.0 °F 30% 30.26 in 10.0 mi WSW 4.6 mph - N/A   Clear
5:54 PM 36.0 °F - 12.0 °F 37% 30.26 in 10.0 mi Calm Calm - N/A   Clear
6:54 PM 32.0 °F - 17.1 °F 54% 30.27 in 10.0 mi Calm Calm - N/A   Clear
7:54 PM 30.0 °F 26.5 °F 18.0 °F 61% 30.24 in 10.0 mi South 3.5 mph - N/A   Clear
8:54 PM 30.0 °F 26.5 °F 17.1 °F 59% 30.23 in 10.0 mi South 3.5 mph - N/A   Clear
9:54 PM 32.0 °F 28.7 °F 18.0 °F 56% 30.21 in 10.0 mi South 3.5 mph - N/A   Clear
10:54 PM 32.0 °F 27.5 °F 19.9 °F 61% 30.18 in 10.0 mi South 4.6 mph - N/A   Clear
11:54 PM 34.0 °F 29.8 °F 21.9 °F 61% 30.14 in 10.0 mi South 4.6 mph - N/A   Clear